User: anonymous   Login
Location: Unspecified
(0.0000°N, 0.0000°E)
Time: 12:49:45
(UTC+00:00)
Language:

Kopernikus 3 - Orbit

View from above orbital plane
View from above orbital plane
View from above satellite
View from above satellite

Ground track
Ground track

The orbit data is extracted from the following two-line orbital elements,

1 22175U 92066A   18200.60959005  .00000072  00000-0  00000+0 0  9993
2 22175  12.5348  29.0619 0001749 315.2097  35.3035  0.99728157 91789
Epoch (UTC): 19 July 2018 14:37:48
Eccentricity: 0.0001749
inclination: 12.5348°
perigee height: 35932 km
apogee height: 35947 km
right ascension of ascending node: 29.0619°
argument of perigee: 315.2097°
revolutions per day: 0.99728157
mean anomaly at epoch: 35.3035°
orbit number at epoch: 9178

The dashed part of the orbit path shows where the satellite is in the earth's shadow,  

DLR